Redding, CA

6:31 PM PST on December 09, 2019 (GMT -0800)
Redding Municipal

Weather History for KRDD - November, 2019

Change the Weather History Date:

Tuesday, November 19, 2019

  Actual Average Record
Temperature  
Mean Temperature 59 °F -  
Max Temperature 72 °F 61 °F 92 °F (1936)
Min Temperature 45 °F 40 °F 27 °F (2011)
Degree Days  
Heating Degree Days 6    
Cooling Degree Days 0    
Growing Degree Days 8 (Base 50)    
Moisture  
Dew Point 38 °F    
Average Humidity 54    
Maximum Humidity 80    
Minimum Humidity 27    
Precipitation  
Precipitation 0.00 in 0.15 in 2.99 in (1937)
Month to date precipitation 0.00 2.50  
Year to date precipitation 32.66 26.37  
Sea Level Pressure  
Sea Level Pressure 29.69 in    
Wind  
Wind Speed 6 mph (NNW)    
Max Wind Speed 17 mph    
Max Gust Speed 23 mph    
Visibility 10 miles    
Events      
T = Trace of Precipitation, MM = Missing Value Source: NWS Daily Summary

Daily Weather History Graph

Daily Weather History Graph

Search for Another Location

Airport or City:

Astronomy

Nov. 19, 2019 Rise Set
Actual Time 6:59 AM PST 4:48 PM PST
Civil Twilight 6:30 AM PST 5:18 PM PST
Nautical Twilight 5:57 AM PST 5:51 PM PST
Astronomical Twilight 5:24 AM PST 6:23 PM PST
Moon 11:51 PM PST (11/19) 1:13 PM PST (11/19)
Length of Visible Light 10h 47m
Length of Day
9h 48m
Waning Gibbous, 50% of the Moon is Illuminated
Nov 19
Waning Gibbous
Nov 19
Last Quarter
Nov 26
New
Dec 3
First Quarter
Dec 11
Full

Hourly Weather History & Observations

Time (PST) Temp. Dew Point Humidity Pressure Visibility Wind Dir Wind Speed Gust Speed Precip Events Conditions
1:53 AM 54.0 °F 44.1 °F 69% 29.76 in 10.0 mi Calm Calm - N/A   Clear
2:53 AM 50.0 °F 42.1 °F 74% 29.75 in 10.0 mi ENE 3.5 mph - N/A   Clear
3:53 AM 50.0 °F 42.1 °F 74% 29.75 in 10.0 mi Variable 5.8 mph - N/A   Clear
4:53 AM 48.9 °F 42.1 °F 77% 29.73 in 10.0 mi Calm Calm - N/A   Clear
5:53 AM 48.9 °F 42.1 °F 77% 29.74 in 10.0 mi SSE 4.6 mph - N/A   Clear
6:53 AM 46.0 °F 39.9 °F 79% 29.75 in 10.0 mi North - - N/A   Clear
7:53 AM 52.0 °F 41.0 °F 66% 29.76 in 10.0 mi NW 6.9 mph - N/A   Clear
8:53 AM 57.9 °F 42.1 °F 56% 29.76 in 10.0 mi NNE 5.8 mph - N/A   Clear
9:53 AM 63.0 °F 41.0 °F 45% 29.75 in 10.0 mi North 3.5 mph - N/A   Clear
10:53 AM 66.9 °F 37.0 °F 33% 29.73 in 10.0 mi NNW 5.8 mph - N/A   Clear
11:53 AM 70.0 °F 36.0 °F 29% 29.69 in 10.0 mi NW 10.4 mph - N/A   Clear
12:53 PM 70.0 °F 36.0 °F 29% 29.66 in 10.0 mi WNW 11.5 mph 20.7 mph N/A   Clear
1:53 PM 71.1 °F 36.0 °F 28% 29.64 in 10.0 mi WNW 10.4 mph 19.6 mph N/A   Clear
2:53 PM 71.1 °F 37.0 °F 29% 29.61 in 10.0 mi NW 9.2 mph 19.6 mph N/A   Clear
3:53 PM 69.1 °F 37.0 °F 31% 29.60 in 10.0 mi WNW 9.2 mph - N/A   Partly Cloudy
4:53 PM 66.0 °F 37.9 °F 36% 29.59 in 10.0 mi NW 8.1 mph 17.3 mph N/A   Mostly Cloudy
5:53 PM 66.0 °F 35.1 °F 32% 29.61 in 10.0 mi NNW 6.9 mph - N/A   Overcast
6:53 PM 64.0 °F 36.0 °F 35% 29.63 in 10.0 mi North 16.1 mph 21.9 mph N/A   Overcast
7:53 PM 62.1 °F 35.1 °F 37% 29.65 in 10.0 mi NNW 13.8 mph - N/A   Mostly Cloudy
8:53 PM 61.0 °F 35.1 °F 38% 29.66 in 10.0 mi North 13.8 mph - N/A   Clear
9:53 PM 60.1 °F 35.1 °F 39% 29.67 in 10.0 mi North 13.8 mph - N/A   Clear
10:53 PM 59.0 °F 35.1 °F 41% 29.68 in 10.0 mi North 11.5 mph - N/A   Clear
11:53 PM 59.0 °F 35.1 °F 41% 29.68 in 10.0 mi North 11.5 mph 18.4 mph N/A   Clear